Location: ActonStarParty
(42.4766°N, 71.4538°W)
Time: 15:27:27
(UTC-04:00)

BREEZE-M DEB (TANK) - Pass Details

Date: 19 April 2018
Orbit: 276 x 16808 km, 49.4° (Epoch: 20 October)

Event Time Altitude Azimuth Distance (km) Brightness Sun altitude
Rises 21:40:58 0° 299° (WNW) 2,950 8.0 -21.6°
Reaches altitude 10° 21:43:49 10° 300° (WNW) 1,443 6.1 -22.0°
Enters shadow 21:45:22 28° 304° (NW) 637 3.8 -22.2°
